Weather History for Abu Dhabi, United Arab Emirates

Change the Weather History Date:

Friday, January 18, 2013

  Actual Average Record
Temperature  
Mean Temperature 58 °F -  
Max Temperature 70 °F 76 °F 87 °F (1999)
Min Temperature 47 °F 57 °F 47 °F (2013)
Degree Days  
Heating Degree Days 6    
Growing Degree Days 8 (Base 50)    
Moisture  
Dew Point 40 °F    
Average Humidity 47    
Maximum Humidity 68    
Minimum Humidity 22    
Precipitation  
Precipitation 0.00 in 0.04 in - ()
Sea Level Pressure  
Sea Level Pressure 30.17 in    
Wind  
Wind Speed 5 mph ()    
Max Wind Speed 12 mph    
Max Gust Speed -    
Visibility 6.0 miles    
Events      
Averages and records for this station are not official NWS values.
T = Trace of Precipitation, MM = Missing Value Source: Averaged Metar Reports

Daily Weather History Graph

Daily Weather History Graph

Search for Another Location

Airport:

Trip Planner

Search our weather history database for the weather conditions in past years. The results will help you decide how hot, cold, wet, or windy it might be!

Date:

Astronomy

Jan. 18, 2013 Rise Set
Actual Time 7:06 AM GST 5:56 PM GST
Civil Twilight 6:42 AM GST 6:21 PM GST
Nautical Twilight 6:14 AM GST 6:49 PM GST
Astronomical Twilight 5:47 AM GST 7:16 PM GST
Moon 11:22 AM GST (1/18) No Moon Set
Length of Visible Light 11h 38m
Length of Day
10h 49m
Waxing Crescent, 43% of the Moon is Illuminated
Jan 18
Waxing Crescent
Jan 19
First Quarter
Jan 27
Full
Feb 3
Last Quarter
Feb 10
New

Hourly Weather History & Observations

Time (GST) Temp. Dew Point Humidity Pressure Visibility Wind Dir Wind Speed Gust Speed Precip Events Conditions
12:00 AM 55.4 °F 39.2 °F 54% 30.21 in - NE 3.5 mph - N/A   Clear
1:00 AM 55 °F 38 °F 42% 30.21 in 6 mi ENE 2.3 mph - -  
1:00 AM 55.4 °F 39.2 °F 54% 30.18 in - ENE 2.3 mph - N/A   Clear
2:00 AM 53.6 °F 37.4 °F 54% 30.18 in - ENE 5.8 mph - N/A   Clear
3:00 AM 55.4 °F 35.6 °F 47% 30.18 in - East 6.9 mph - N/A   Clear
4:00 AM 50 °F 35 °F 43% 30.17 in 6 mi East 5.8 mph - -  
4:00 AM 50.0 °F 33.8 °F 54% 30.15 in - East 5.8 mph - N/A   Clear
5:00 AM 48.2 °F 33.8 °F 58% 30.15 in - East 4.6 mph - N/A   Clear
6:00 AM 50.0 °F 33.8 °F 54% 30.15 in - East 4.6 mph - N/A   Clear
7:00 AM 50.0 °F 30.2 °F 47% 30.15 in - SE 5.8 mph - N/A   Clear
8:00 AM 50.0 °F 32.0 °F 50% 30.18 in - SSE 2.3 mph - N/A   Clear
9:00 AM 53.6 °F 33.8 °F 47% 30.21 in - ESE 2.3 mph - N/A   Clear
10:00 AM 61 °F 33 °F 24% 30.23 in 6 mi ESE 2.3 mph - -  
10:00 AM 60.8 °F 33.8 °F 36% 30.21 in - ESE 2.3 mph - N/A   Clear
11:00 AM 64.4 °F 30.2 °F 28% 30.21 in - East 2.3 mph - N/A   Clear
12:00 PM 68.0 °F 35.6 °F 30% 30.21 in - NW 3.5 mph - N/A   Clear
1:00 PM 68 °F 38 °F 22% 30.17 in 6 mi NW 11.5 mph - -  
1:00 PM 68.0 °F 39.2 °F 35% 30.15 in - NW 11.5 mph - N/A   Clear
2:00 PM 69.8 °F 39.2 °F 33% 30.12 in - NW 9.2 mph - N/A   Clear
3:00 PM 69.8 °F 41.0 °F 35% 30.12 in - NNW 10.4 mph - N/A   Clear
4:00 PM 69 °F 43 °F 28% 30.12 in 6 mi NW 10.4 mph - -  
4:00 PM 69.8 °F 42.8 °F 38% 30.12 in - NW 10.4 mph - N/A   Clear
5:00 PM 68.0 °F 44.6 °F 43% 30.12 in - NW 8.1 mph - N/A   Clear
6:00 PM 66.2 °F 48.2 °F 52% 30.12 in - NW 9.2 mph - N/A   Clear
7:00 PM 65 °F 51 °F 49% 30.17 in 6 mi WNW 9.2 mph - -  
7:00 PM 64.4 °F 50.0 °F 59% 30.15 in - WNW 9.2 mph - N/A   Clear
8:00 PM 64.4 °F 51.8 °F 64% 30.18 in - WNW 8.1 mph - N/A   Clear
9:00 PM 62.6 °F 51.8 °F 68% 30.18 in - NW 8.1 mph - N/A   Clear
10:00 PM 62 °F 52 °F 62% 30.20 in 6 mi NW 5.8 mph - -  
10:00 PM 62.6 °F 51.8 °F 68% 30.18 in - NW 5.8 mph - N/A   Clear
11:00 PM 62.6 °F 51.8 °F 68% 30.18 in - NW 5.8 mph - N/A   Clear